User: anonymous   Login
Location: Unspecified
(0.0000°N, 0.0000°E)
Time: 19:58:38
(UTC+00:00)
Language:

CP3 - Orbit

View from above orbital plane
View from above orbital plane
View from above satellite
View from above satellite

Ground track
Ground track

The orbit data is extracted from the following two-line orbital elements,

1 31129U 07012N   17144.84420530 +.00000166 +00000-0 +45673-4 0  9991
2 31129 098.0776 095.3634 0094167 269.9646 089.0762 14.56502066536106
Epoch (UTC): 24 May 2017 20:15:39
Eccentricity: 0.0094167
inclination: 98.0776°
perigee height: 638 km
apogee height: 771 km
right ascension of ascending node: 95.3634°
argument of perigee: 269.9646°
revolutions per day: 14.56502066
mean anomaly at epoch: 89.0762°
orbit number at epoch: 53610

The dashed part of the orbit path shows where the satellite is in the earth's shadow,  

DLR